EW9174 Weather Reports


Display with metric or nautical units.
time (UTC)temp
F
wind
direction
speed
MPH
gust
MPH
rain 1hr
in
rain 24hr
in
rain mn
in
humidity
%
barometer
mb
20260510051515 57 68 2.0 14.0 0.00 0.00 0.00 60 1011.6
20260510050016 58 73 4.0 12.0 0.00 0.00 0.00 58 1011.3
20260510044516 58 55 5.0 16.0 0.00 0.00 0.00 56 1011.0
20260510043008 59 115 3.0 19.0 0.00 0.00 0.00 55 1010.3
20260510041512 60 67 3.0 15.0 0.00 0.00 0.00 51 1009.8
20260510040004 63 70 3.0 16.0 0.00 0.00 0.00 47 1009.2
20260510034600 64 56 3.0 12.0 0.00 0.00 0.00 43 1008.3
20260510033126 65 75 0.0 2.0 0.00 0.00 0.00 40 1006.6
20260510031556 65 77 0.0 1.0 0.00 0.00 0.00 39 1006.3
20260510030056 66 77 0.0 0.0 0.00 0.00 0.00 38 1005.9
20260510024604 67 77 0.0 1.0 0.00 0.00 0.00 36 1005.4
20260510023055 68 76 0.0 1.0 0.00 0.00 0.00 34 1004.9
20260510021555 69 76 0.0 1.0 0.00 0.00 0.00 34 1004.7
20260510020057 70 76 0.0 1.0 0.00 0.00 0.00 32 1004.3
20260510014554 71 76 0.0 1.0 0.00 0.00 0.00 30 1003.8
20260510013053 72 76 0.0 2.0 0.00 0.00 0.00 26 1003.9
20260510011553 72 56 1.0 7.0 0.00 0.00 0.00 26 1004.8
20260510010053 72 47 0.0 5.0 0.00 0.00 0.00 31 1004.9
20260510004552 72 63 0.0 2.0 0.00 0.00 0.00 30 1004.7
20260510003102 72 55 1.0 5.0 0.00 0.00 0.00 30 1004.1
20260510001550 74 74 1.0 4.0 0.00 0.00 0.00 28 1004.0
20260510000053 76 59 0.0 2.0 0.00 0.00 0.00 21 1003.8
20260509234551 76 35 1.0 6.0 0.00 0.00 0.00 20 1002.9
20260509233048 75 5 3.0 9.0 0.00 0.00 0.00 20 1003.0
20260509231553 76 80 3.0 14.0 0.00 0.00 0.00 20 1002.3
20260509230052 76 65 0.0 3.0 0.00 0.00 0.00 22 1002.2
20260509224556 76 80 0.0 3.0 0.00 0.00 0.00 21 1002.2
20260509223051 78 118 0.0 4.0 0.00 0.00 0.00 21 1002.0
20260509221546 79 86 1.0 3.0 0.00 0.00 0.00 19 1001.3
20260509220046 79 75 1.0 3.0 0.00 0.00 0.00 19 1001.4
20260509214545 81 51 0.0 4.0 0.00 0.00 0.00 16 1001.3
20260509213043 83 66 0.0 2.0 0.00 0.00 0.00 17 1001.4
20260509211541 86 65 0.0 2.0 0.00 0.00 0.00 18 1001.7
20260509210046 87 62 2.0 5.0 0.00 0.00 0.00 16 1002.0
20260509204536 87 274 1.0 6.0 0.00 0.00 0.00 15 1002.1
20260509203036 85 324 0.0 7.0 0.00 0.00 0.00 15 1002.4
20260509201529 85 5 1.0 4.0 0.00 0.00 0.00 18 1002.7
20260509200025 84 11 0.0 6.0 0.00 0.00 0.00 16 1003.1
20260509194527 84 24 2.0 6.0 0.00 0.00 0.00 16 1003.3
20260509193023 84 324 0.0 5.0 0.00 0.00 0.00 18 1003.4
20260509191520 83 261 2.0 6.0 0.00 0.00 0.00 16 1003.7
20260509190017 83 301 0.0 3.0 0.00 0.00 0.00 21 1003.8
20260509184523 82 217 1.0 6.0 0.00 0.00 0.00 19 1003.9
20260509183014 81 5 1.0 11.0 0.00 0.00 0.00 19 1004.1
20260509181510 81 83 0.0 2.0 0.00 0.00 0.00 23 1004.4
20260509180007 80 96 0.0 2.0 0.00 0.00 0.00 26 1004.7
20260509174505 78 57 0.0 3.0 0.00 0.00 0.00 26 1004.9
20260509173110 77 57 0.0 4.0 0.00 0.00 0.00 24 1005.2
20260509171557 77 33 0.0 7.0 0.00 0.00 0.00 22 1005.4
20260509170055 76 11 1.0 5.0 0.00 0.00 0.00 24 1005.3
20260509164549 74 50 1.0 5.0 0.00 0.00 0.00 27 1005.6
20260509163045 72 163 1.0 4.0 0.00 0.00 0.00 34 1005.7
20260509161547 70 53 0.0 4.0 0.00 0.00 0.00 39 1005.7
20260509160037 68 53 1.0 3.0 0.00 0.00 0.00 41 1005.8
20260509154532 65 55 1.0 3.0 0.00 0.00 0.00 47 1005.8
20260509153031 63 56 0.0 3.0 0.00 0.00 0.00 53 1006.0
20260509151524 62 57 0.0 3.0 0.00 0.00 0.00 58 1006.2
20260509150020 60 57 0.0 3.0 0.00 0.00 0.00 59 1006.1
20260509144519 59 56 0.0 1.0 0.00 0.00 0.00 63 1006.2
20260509143016 57 56 0.0 3.0 0.00 0.00 0.00 65 1006.2
20260509141516 55 57 0.0 4.0 0.00 0.00 0.00 67 1006.5
20260509140005 53 57 0.0 2.0 0.00 0.00 0.00 73 1006.6
20260509134511 50 70 0.0 2.0 0.00 0.00 0.00 78 1006.6
20260509133002 48 70 0.0 3.0 0.00 0.00 0.00 81 1006.5
20260509131505 47 70 0.0 3.0 0.00 0.00 0.00 82 1006.5
20260509130002 46 71 0.0 2.0 0.00 0.00 0.00 82 1006.4
20260509124501 45 71 0.0 1.0 0.00 0.00 0.00 82 1006.2
20260509123100 45 71 0.0 2.0 0.00 0.00 0.00 81 1006.2
20260509121559 45 71 0.0 1.0 0.00 0.00 0.00 81 1006.1
20260509120101 45 71 0.0 0.0 0.00 0.00 0.00 81 1005.8
20260509114558 45 71 0.0 2.0 0.00 0.00 0.00 81 1005.7
20260509113056 45 71 0.0 1.0 0.00 0.00 0.00 81 1005.5
20260509111558 46 71 0.0 2.0 0.00 0.00 0.00 81 1005.5
20260509110053 46 71 0.0 0.0 0.00 0.00 0.00 80 1005.4
20260509104606 46 71 0.0 0.0 0.00 0.00 0.00 80 1005.5
20260509103103 46 71 0.0 1.0 0.00 0.00 0.00 80 1005.4
20260509101548 47 71 0.0 0.0 0.00 0.00 0.00 79 1005.5
20260509100046 47 71 0.0 1.0 0.00 0.00 0.00 79 1005.6
20260509094547 47 71 0.0 1.0 0.00 0.00 0.00 79 1005.7
20260509093043 48 71 0.0 0.0 0.00 0.00 0.00 78 1005.6
20260509091544 48 71 0.0 1.0 0.00 0.00 0.00 77 1005.5
20260509090050 49 71 0.0 2.0 0.00 0.00 0.00 77 1005.6
20260509084538 49 71 0.0 3.0 0.00 0.00 0.00 75 1005.7
20260509083034 50 71 0.0 2.0 0.00 0.00 0.00 75 1005.8
20260509081546 50 71 0.0 0.0 0.00 0.00 0.00 73 1005.8
20260509080028 51 71 0.0 1.0 0.00 0.00 0.00 71 1006.3
20260509074524 52 71 0.0 0.0 0.00 0.00 0.00 69 1006.4
20260509073036 53 71 0.0 0.0 0.00 0.00 0.00 67 1006.5
20260509071526 53 71 0.0 0.0 0.00 0.00 0.00 65 1006.6
20260509070034 53 71 0.0 0.0 0.00 0.00 0.00 68 1006.9
20260509064518 53 71 0.0 0.0 0.00 0.00 0.00 67 1007.0
20260509063018 53 71 0.0 0.0 0.00 0.00 0.00 69 1007.0
20260509061515 53 71 0.0 0.0 0.00 0.00 0.00 69 1007.2
20260509060016 53 71 0.0 0.0 0.00 0.00 0.00 67 1007.1
20260509054512 54 71 0.0 0.0 0.00 0.00 0.00 66 1007.1
20260509053015 55 71 0.0 0.0 0.00 0.00 0.00 63 1007.3